Regional Weather Roundup
Issued by NWS

Home | Current Version | Previous Version | Graphics & Text | Print | Product List | Glossary On
Versions: 1 2 3 4 5 6 7 8 9 10 11 12 13 14 15 16 17 18 19 20 21 22 23 24 25 26 27 28 29 30 31 32 33 34 35 36 37 38 39 40 41 42 43 44 45 46 47 48 49 50
000
ASUS43 KFSD 220610
RWRSD

WEATHER ROUNDUP FOR SOUTH DAKOTA
NATIONAL WEATHER SERVICE SIOUX FALLS SD
1200 AM CST SUN JAN 22 2017

NOTE: "FAIR" INDICATES FEW OR NO CLOUDS BELOW 12,000 FEET WITH NO
SIGNIFICANT WEATHER AND/OR OBSTRUCTIONS TO VISIBILITY.


SDZ001>005-009-010-012>017-220700-
NORTHWEST AND NORTH CENTRAL SOUTH DAKOTA

CITY           SKY/WX    TMP DP  RH WIND       PRES   REMARKS
BUFFALO          N/A     22  19  89 W12       29.56R WCI  10
FAITH            N/A     23  21  92 NW12      29.62R WCI  12
MOBRIDGE       FOG       15  11  83 CALM      29.59R VSB 1/2
$$

SDZ012>016-024>037-041>051-057-063-072>074-220700-
SOUTHWEST AND SOUTH CENTRAL SOUTH DAKOTA

CITY           SKY/WX    TMP DP  RH WIND       PRES   REMARKS
RAPID CTY ARPT CLOUDY    26  20  77 NW7       29.65R WCI  18
PIERRE         CLOUDY    19  17  92 NW10      29.61R WCI   7
CUSTER         CLOUDY    25  22  88 CALM      29.62R
ELLSWORTH AFB  CLEAR     25  21  86 W6        29.64R WCI  18
PHILIP         CLEAR     26  23  88 W13       29.65R WCI  15
PINE RIDGE     CLOUDY    19  18  95 CALM      29.67R
SPEARFISH      FAIR      28  19  69 W7        29.65R WCI  21
WINNER         FAIR      29  26  89 W8        29.63R WCI  21
$$

SDZ004>011-016>023-039-040-220700-
NORTHEAST SOUTH DAKOTA

CITY           SKY/WX    TMP DP  RH WIND       PRES   REMARKS
ABERDEEN       CLOUDY    32  28  85 NW9       29.61R WCI  24
WATERTOWN      CLOUDY    31  29  92 NW7       29.57R WCI  24
BROOKINGS      CLOUDY    31  30  96 NW8       29.57R WCI  23
SISSETON         N/A     33  33 100 N7        29.57R WCI  27
$$

SDZ017-020-022-023-036>040-048>070-220700-
SOUTHEAST SOUTH DAKOTA

CITY           SKY/WX    TMP DP  RH WIND       PRES   REMARKS
SIOUX FALLS    CLOUDY    32  30  92 NW7       29.59R WCI  26
HURON          CLOUDY    31  29  92 NW9       29.61R WCI  23
CHAMBERLAIN    FOG       25  25  98 CALM      29.64R VSB 1/4
MITCHELL       CLOUDY    32  30  92 NW8       29.63R WCI  25
YANKTON        CLOUDY    30  27  86 NW10      29.62R WCI  21
$$

ABBREVIATIONS USED IN REMARKS
   TC - TEMPERATURE IN CELSIUS
  WCI - WIND CHILL INDEX
   HX - HEAT INDEX
  VSB - VISIBILITY




USA.gov is the U.S. government's official web portal to all federal, state and local government web resources and services.